QPF
0.07 0.08 0.07 0.05 0.05 0.06 0.07 0.07 0.08 0.06 0.05 0.06 0.04 0.03 0.04 0.03 0.05 0.05 0.04 0.04 0.03 0.04 0.05 0.04 0.03 0.03 0.03 0.03 0.03 0.03 0.02 0.02 0.03 0.03 0.04 0.04 0.04 0.04
0.08 0.09 0.05 0.04 0.04 0.05 0.07 0.07 0.07 0.07 0.07 0.06 0.05 0.04 0.05 0.04 0.07 0.07 0.05 0.04 0.03 0.03 0.04 0.04 0.04 0.03 0.03 0.03 0.04 0.03 0.03 0.02 0.02 0.02 0.01 0.02 0.02 0.01
0.06 0.07 0.07 0.06 0.07 0.07 0.09 0.08 0.07 0.08 0.06 0.04 0.04 0.05 0.06 0.07 0.07 0.07 0.06 0.04 0.04 0.04 0.04 0.04 0.05 0.04 0.04 0.04 0.04 0.04 0.03 0.02 0.02 0.01 0.01 0.02 0.01 0.02
0.12 0.11 0.08 0.07 0.07 0.07 0.07 0.07 0.09 0.09 0.08 0.06 0.06 0.07 0.06 0.08 0.08 0.07 0.06 0.05 0.05 0.06 0.07 0.08 0.08 0.06 0.05 0.05 0.04 0.04 0.03 0.03 0.03 0.02 0.02 0.03 0.03 0.03
0.12 0.11 0.08 0.09 0.08 0.07 0.08 0.09 0.07 0.06 0.07 0.06 0.06 0.06 0.07 0.09 0.09 0.07 0.07 0.07 0.07 0.09 0.11 0.11 0.10 0.08 0.07 0.07 0.06 0.04 0.04 0.04 0.03 0.02 0.02 0.02 0.02 0.02
0.10 0.10 0.10 0.10 0.09 0.09 0.10 0.08 0.07 0.07 0.07 0.07 0.07 0.07 0.06 0.08 0.09 0.09 0.08 0.07 0.07 0.08 0.11 0.12 0.13 0.11 0.09 0.08 0.07 0.07 0.07 0.06 0.04 0.04 0.04 0.04 0.03 0.02
0.11 0.10 0.10 0.09 0.09 0.09 0.08 0.08 0.09 0.09 0.09 0.10 0.09 0.08 0.09 0.11 0.10 0.08 0.07 0.07 0.07 0.07 0.08 0.09 0.10 0.09 0.08 0.08 0.08 0.08 0.07 0.07 0.08 0.07 0.05 0.04 0.03 0.03
0.10 0.10 0.10 0.10 0.10 0.11 0.10 0.08 0.07 0.07 0.07 0.09 0.10 0.11 0.10 0.09 0.07 0.06 0.05 0.05 0.04 0.05 0.07 0.08 0.08 0.08 0.09 0.11 0.13 0.13 0.11 0.10 0.10 0.09 0.08 0.08 0.06 0.05
0.09 0.10 0.08 0.08 0.09 0.07 0.05 0.04 0.04 0.05 0.06 0.07 0.07 0.05 0.04 0.04 0.05 0.05 0.04 0.05 0.04 0.05 0.08 0.07 0.08 0.07 0.07 0.09 0.10 0.10 0.11 0.11 0.11 0.11 0.10 0.08 0.07 0.06
0.07 0.06 0.04 0.04 0.05 0.05 0.04 0.04 0.04 0.04 0.04 0.04 0.04 0.03 0.02 0.03 0.04 0.05 0.04 0.04 0.04 0.04 0.05 0.04 0.04 0.04 0.04 0.05 0.06 0.06 0.07 0.08 0.09 0.10 0.11 0.11 0.10 0.08
0.07 0.06 0.05 0.05 0.06 0.06 0.05 0.05 0.04 0.03 0.03 0.03 0.03 0.03 0.03 0.03 0.04 0.04 0.02 0.03 0.02 0.02 0.03 0.04 0.04 0.04 0.06 0.07 0.07 0.09 0.09 0.09 0.08 0.08 0.08 0.07 0.07 0.06
0.07 0.06 0.07 0.07 0.09 0.08 0.07 0.06 0.05 0.05 0.05 0.04 0.04 0.03 0.03 0.02 0.02 0.02 0.02 0.03 0.03 0.03 0.03 0.03 0.03 0.05 0.07 0.09 0.09 0.09 0.08 0.08 0.07 0.06 0.05 0.05 0.04 0.04
0.05 0.04 0.05 0.08 0.09 0.08 0.08 0.08 0.08 0.08 0.07 0.06 0.05 0.04 0.03 0.03 0.03 0.03 0.03 0.03 0.03 0.04 0.04 0.04 0.03 0.04 0.05 0.05 0.05 0.05 0.05 0.05 0.04 0.04 0.05 0.05 0.04 0.04
0.03 0.04 0.06 0.08 0.08 0.09 0.09 0.08 0.09 0.09 0.07 0.06 0.05 0.04 0.03 0.02 0.02 0.02 0.02 0.02 0.02 0.02 0.03 0.03 0.03 0.03 0.03 0.04 0.04 0.04 0.04 0.03 0.03 0.03 0.03 0.03 0.02 0.02
0.02 0.03 0.04 0.05 0.06 0.06 0.06 0.06 0.06 0.06 0.06 0.05 0.05 0.05 0.04 0.03 0.02 0.02 0.01 0.01 0.01 0.01 0.01 0.02 0.03 0.04 0.04 0.04 0.03 0.02 0.02 0.02 0.03 0.04 0.04 0.04 0.03 0.02
0.01 0.01 0.02 0.02 0.02 0.02 0.03 0.05 0.06 0.06 0.06 0.06 0.07 0.08 0.07 0.04 0.03 0.02 0.02 0.01 0.01 0.01 0.00 0.01 0.02 0.02 0.01 0.01 0.01 0.01 0.02 0.02 0.01 0.02 0.02 0.02 0.02 0.03
0.01 0.01 0.01 0.01 0.01 0.01 0.02 0.03 0.05 0.07 0.08 0.09 0.10 0.09 0.07 0.05 0.04 0.03 0.03 0.02 0.02 0.01 0.01 0.01 0.02 0.02 0.02 0.02 0.02 0.02 0.02 0.01 0.01 0.02 0.02 0.02 0.03 0.04
0.01 0.01 0.01 0.01 0.01 0.01 0.02 0.05 0.08 0.09 0.09 0.08 0.07 0.06 0.06 0.05 0.04 0.04 0.03 0.02 0.02 0.01 0.01 0.01 0.01 0.01 0.01 0.01 0.01 0.01 0.00 0.01 0.01 0.01 0.02 0.03 0.03 0.03
0.02 0.01 0.01 0.01 0.01 0.01 0.02 0.03 0.05 0.07 0.08 0.07 0.06 0.05 0.04 0.04 0.03 0.03 0.02 0.02 0.01 0.01 0.01 0.01 0.01 0.01 0.01 0.00 0.01 0.01 0.01 0.01 0.01 0.01 0.01 0.02 0.02 0.02
0.01 0.01 0.01 0.01 0.01 0.01 0.02 0.02 0.03 0.03 0.03 0.04 0.04 0.04 0.05 0.04 0.03 0.03 0.02 0.02 0.01 0.01 0.01 0.01 0.01 0.01 0.01 0.01 0.01 0.01 0.01 0.01 0.01 0.01 0.01 0.01 0.02 0.02
0.01 0.01 0.01 0.01 0.02 0.02 0.03 0.03 0.02 0.02 0.03 0.03 0.03 0.04 0.04 0.04 0.04 0.03 0.03 0.03 0.03 0.03 0.02 0.02 0.02 0.03 0.03 0.03 0.03 0.02 0.01 0.01 0.01 0.01 0.02 0.02 0.03 0.03
0.02 0.02 0.02 0.02 0.02 0.03 0.03 0.03 0.03 0.03 0.03 0.03 0.03 0.03 0.03 0.03 0.03 0.03 0.03 0.03 0.03 0.04 0.04 0.05 0.05 0.05 0.05 0.05 0.04 0.03 0.02 0.02 0.02 0.03 0.03 0.04 0.03 0.03
0.03 0.03 0.03 0.03 0.03 0.03 0.03 0.02 0.03 0.03 0.03 0.03 0.03 0.03 0.03 0.03 0.02 0.02 0.02 0.03 0.03 0.04 0.05 0.05 0.05 0.04 0.04 0.04 0.04 0.04 0.03 0.03 0.02 0.02 0.02 0.03 0.03 0.02
MSLP
1013.99 1014.24 1014.54 1014.87 1015.18 1015.43 1015.58 1015.60 1015.51 1015.32 1015.05 1014.75 1014.46 1014.20 1014.01 1013.91 1013.89 1013.96 1014.10 1014.29 1014.53 1014.78 1015.03 1015.26 1015.46 1015.61 1015.70 1015.75 1015.77 1015.77 1015.77 1015.78 1015.83 1015.92 1016.05 1016.20 1016.37 1016.54
1013.28 1013.51 1013.81 1014.14 1014.47 1014.75 1014.96 1015.07 1015.08 1015.00 1014.86 1014.67 1014.49 1014.32 1014.20 1014.15 1014.16 1014.23 1014.36 1014.54 1014.75 1014.98 1015.21 1015.42 1015.60 1015.73 1015.81 1015.84 1015.83 1015.80 1015.75 1015.72 1015.72 1015.75 1015.83 1015.94 1016.07 1016.20
1012.64 1012.85 1013.13 1013.45 1013.79 1014.10 1014.35 1014.54 1014.66 1014.70 1014.69 1014.64 1014.58 1014.53 1014.51 1014.52 1014.57 1014.67 1014.80 1014.96 1015.15 1015.35 1015.56 1015.75 1015.91 1016.03 1016.10 1016.12 1016.10 1016.05 1015.98 1015.92 1015.87 1015.86 1015.89 1015.96 1016.05 1016.15
1012.16 1012.35 1012.61 1012.92 1013.25 1013.57 1013.86 1014.11 1014.31 1014.46 1014.57 1014.66 1014.73 1014.79 1014.87 1014.95 1015.05 1015.17 1015.30 1015.46 1015.63 1015.81 1015.99 1016.16 1016.31 1016.42 1016.50 1016.52 1016.50 1016.45 1016.37 1016.30 1016.23 1016.20 1016.19 1016.22 1016.27 1016.34
1011.94 1012.12 1012.36 1012.65 1012.96 1013.28 1013.58 1013.86 1014.12 1014.35 1014.55 1014.74 1014.91 1015.08 1015.23 1015.38 1015.53 1015.67 1015.81 1015.95 1016.11 1016.26 1016.42 1016.58 1016.72 1016.84 1016.92 1016.96 1016.96 1016.92 1016.85 1016.78 1016.71 1016.66 1016.64 1016.65 1016.67 1016.71
1012.05 1012.23 1012.45 1012.71 1013.00 1013.29 1013.59 1013.87 1014.15 1014.41 1014.67 1014.92 1015.15 1015.38 1015.60 1015.79 1015.97 1016.12 1016.27 1016.40 1016.54 1016.68 1016.82 1016.97 1017.11 1017.23 1017.32 1017.37 1017.39 1017.37 1017.32 1017.26 1017.20 1017.15 1017.13 1017.12 1017.13 1017.14
1012.53 1012.71 1012.92 1013.15 1013.41 1013.67 1013.93 1014.19 1014.45 1014.71 1014.97 1015.23 1015.49 1015.74 1015.97 1016.19 1016.38 1016.54 1016.68 1016.81 1016.93 1017.05 1017.18 1017.32 1017.45 1017.56 1017.66 1017.72 1017.75 1017.74 1017.71 1017.67 1017.61 1017.57 1017.54 1017.53 1017.53 1017.53
1013.36 1013.54 1013.74 1013.96 1014.19 1014.41 1014.62 1014.83 1015.04 1015.25 1015.48 1015.71 1015.95 1016.18 1016.41 1016.61 1016.80 1016.95 1017.09 1017.20 1017.31 1017.42 1017.53 1017.65 1017.76 1017.86 1017.95 1018.00 1018.03 1018.02 1017.99 1017.94 1017.89 1017.85 1017.82 1017.80 1017.79 1017.79
1014.46 1014.65 1014.86 1015.07 1015.27 1015.46 1015.62 1015.76 1015.91 1016.05 1016.21 1016.38 1016.56 1016.75 1016.94 1017.12 1017.28 1017.42 1017.54 1017.64 1017.74 1017.83 1017.92 1018.01 1018.09 1018.17 1018.22 1018.25 1018.25 1018.22 1018.16 1018.10 1018.03 1017.96 1017.92 1017.89 1017.88 1017.87
1015.74 1015.96 1016.18 1016.39 1016.58 1016.73 1016.84 1016.93 1016.99 1017.06 1017.13 1017.23 1017.34 1017.47 1017.61 1017.75 1017.88 1017.99 1018.10 1018.18 1018.26 1018.33 1018.39 1018.45 1018.49 1018.52 1018.53 1018.51 1018.45 1018.37 1018.27 1018.15 1018.04 1017.94 1017.86 1017.81 1017.78 1017.77
1017.08 1017.32 1017.57 1017.80 1017.98 1018.11 1018.18 1018.22 1018.22 1018.21 1018.21 1018.22 1018.26 1018.33 1018.41 1018.51 1018.61 1018.70 1018.78 1018.85 1018.90 1018.94 1018.98 1018.99 1018.99 1018.96 1018.90 1018.81 1018.68 1018.53 1018.35 1018.17 1017.99 1017.84 1017.71 1017.62 1017.57 1017.54
1018.38 1018.66 1018.93 1019.18 1019.37 1019.49 1019.54 1019.53 1019.49 1019.42 1019.35 1019.30 1019.28 1019.29 1019.33 1019.39 1019.45 1019.52 1019.58 1019.63 1019.66 1019.67 1019.66 1019.63 1019.57 1019.48 1019.35 1019.18 1018.97 1018.73 1018.47 1018.20 1017.95 1017.72 1017.54 1017.40 1017.30 1017.24
1019.59 1019.90 1020.20 1020.46 1020.66 1020.78 1020.82 1020.79 1020.71 1020.61 1020.50 1020.41 1020.34 1020.31 1020.32 1020.34 1020.38 1020.42 1020.45 1020.47 1020.47 1020.45 1020.40 1020.32 1020.20 1020.04 1019.84 1019.59 1019.31 1018.98 1018.64 1018.29 1017.96 1017.66 1017.40 1017.20 1017.05 1016.95
1020.68 1021.02 1021.34 1021.62 1021.82 1021.94 1021.98 1021.94 1021.85 1021.72 1021.60 1021.48 1021.39 1021.34 1021.31 1021.31 1021.33 1021.34 1021.34 1021.33 1021.29 1021.23 1021.13 1021.00 1020.82 1020.61 1020.34 1020.03 1019.68 1019.29 1018.87 1018.45 1018.05 1017.67 1017.34 1017.07 1016.85 1016.69
1021.68 1022.03 1022.36 1022.63 1022.84 1022.96 1022.99 1022.95 1022.86 1022.74 1022.61 1022.49 1022.39 1022.33 1022.29 1022.26 1022.24 1022.22 1022.19 1022.13 1022.05 1021.93 1021.79 1021.60 1021.38 1021.12 1020.80 1020.45 1020.05 1019.61 1019.15 1018.67 1018.21 1017.77 1017.37 1017.02 1016.73 1016.51
1022.63 1022.97 1023.28 1023.55 1023.74 1023.85 1023.88 1023.85 1023.76 1023.65 1023.53 1023.42 1023.33 1023.26 1023.20 1023.15 1023.10 1023.03 1022.95 1022.84 1022.70 1022.53 1022.32 1022.09 1021.83 1021.53 1021.18 1020.80 1020.38 1019.92 1019.43 1018.93 1018.42 1017.93 1017.46 1017.04 1016.67 1016.36
1023.54 1023.86 1024.16 1024.40 1024.57 1024.66 1024.69 1024.66 1024.58 1024.49 1024.39 1024.29 1024.20 1024.13 1024.05 1023.97 1023.87 1023.76 1023.61 1023.43 1023.22 1022.99 1022.73 1022.45 1022.15 1021.82 1021.47 1021.08 1020.65 1020.19 1019.70 1019.18 1018.64 1018.11 1017.59 1017.10 1016.65 1016.24
1024.44 1024.74 1024.99 1025.20 1025.34 1025.42 1025.44 1025.41 1025.35 1025.27 1025.19 1025.11 1025.02 1024.93 1024.84 1024.72 1024.57 1024.38 1024.17 1023.91 1023.63 1023.33 1023.02 1022.69 1022.36 1022.01 1021.65 1021.27 1020.85 1020.40 1019.91 1019.39 1018.85 1018.28 1017.71 1017.15 1016.62 1016.12
1025.31 1025.57 1025.80 1025.97 1026.08 1026.14 1026.16 1026.13 1026.09 1026.02 1025.95 1025.88 1025.79 1025.69 1025.55 1025.39 1025.18 1024.93 1024.63 1024.31 1023.95 1023.59 1023.21 1022.85 1022.49 1022.13 1021.76 1021.38 1020.98 1020.55 1020.07 1019.55 1019.00 1018.41 1017.79 1017.17 1016.56 1015.97
1026.11 1026.34 1026.53 1026.68 1026.77 1026.82 1026.83 1026.81 1026.78 1026.73 1026.67 1026.59 1026.50 1026.37 1026.20 1025.98 1025.71 1025.39 1025.02 1024.62 1024.20 1023.77 1023.36 1022.95 1022.56 1022.19 1021.82 1021.45 1021.05 1020.63 1020.16 1019.64 1019.08 1018.46 1017.82 1017.15 1016.47 1015.79
1026.79 1027.00 1027.16 1027.29 1027.37 1027.42 1027.43 1027.43 1027.40 1027.36 1027.30 1027.22 1027.11 1026.95 1026.74 1026.46 1026.13 1025.75 1025.32 1024.86 1024.39 1023.91 1023.46 1023.02 1022.61 1022.22 1021.85 1021.47 1021.07 1020.65 1020.18 1019.65 1019.08 1018.45 1017.77 1017.07 1016.34 1015.61
1027.30 1027.49 1027.65 1027.77 1027.85 1027.90 1027.93 1027.93 1027.92 1027.88 1027.82 1027.73 1027.59 1027.39 1027.14 1026.82 1026.44 1026.00 1025.52 1025.02 1024.51 1024.00 1023.52 1023.06 1022.64 1022.23 1021.84 1021.45 1021.04 1020.60 1020.12 1019.58 1019.00 1018.36 1017.67 1016.95 1016.21 1015.45
1027.61 1027.80 1027.96 1028.08 1028.18 1028.24 1028.28 1028.30 1028.29 1028.26 1028.19 1028.07 1027.90 1027.67 1027.38 1027.01 1026.59 1026.12 1025.61 1025.08 1024.55 1024.03 1023.54 1023.07 1022.63 1022.21 1021.80 1021.38 1020.95 1020.49 1019.99 1019.44 1018.84 1018.20 1017.52 1016.81 1016.07 1015.34
Thickness
5744 5743 5741 5741 5740 5739 5736 5732 5725 5718 5720 5726 5728 5732 5732 5731 5730 5728 5727 5726 5724 5723 5721 5720 5717 5715 5713 5711 5709 5707 5705 5703 5702 5700 5699 5697 5695 5694
5744 5742 5741 5740 5739 5738 5736 5734 5731 5724 5720 5725 5726 5729 5729 5729 5728 5726 5725 5723 5722 5721 5720 5718 5716 5714 5712 5710 5708 5706 5704 5702 5700 5698 5697 5695 5693 5691
5743 5741 5740 5739 5737 5736 5734 5733 5730 5726 5720 5723 5726 5727 5726 5724 5724 5723 5721 5720 5718 5718 5716 5715 5713 5711 5709 5707 5705 5703 5701 5699 5697 5696 5694 5693 5691 5689
5741 5739 5738 5738 5735 5734 5732 5730 5728 5726 5722 5719 5721 5721 5721 5720 5719 5718 5717 5716 5715 5714 5713 5711 5709 5708 5706 5704 5702 5699 5697 5696 5694 5693 5691 5689 5687 5685
5739 5737 5735 5734 5732 5731 5729 5727 5726 5725 5723 5719 5717 5717 5716 5716 5713 5713 5712 5711 5710 5709 5708 5707 5705 5703 5702 5700 5698 5696 5694 5692 5690 5689 5687 5685 5683 5681
5737 5735 5733 5731 5729 5727 5726 5724 5723 5720 5718 5715 5712 5711 5710 5709 5708 5705 5703 5703 5703 5703 5703 5701 5699 5698 5696 5694 5692 5690 5689 5687 5686 5684 5682 5679 5677 5675
5733 5732 5730 5729 5727 5725 5723 5720 5718 5714 5711 5708 5706 5704 5702 5701 5699 5699 5696 5696 5696 5695 5694 5693 5692 5691 5689 5687 5685 5684 5682 5681 5679 5678 5675 5673 5671 5669
5727 5726 5725 5724 5722 5720 5718 5716 5713 5709 5705 5703 5700 5697 5696 5695 5694 5693 5690 5688 5686 5687 5685 5684 5684 5682 5681 5679 5678 5676 5675 5673 5671 5669 5667 5665 5662 5660
5722 5720 5719 5718 5716 5713 5711 5709 5707 5705 5703 5699 5694 5692 5691 5690 5688 5686 5684 5681 5678 5679 5677 5675 5674 5672 5672 5670 5669 5667 5666 5664 5662 5660 5657 5655 5653 5650
5717 5715 5712 5710 5709 5707 5704 5701 5698 5696 5695 5693 5691 5688 5687 5686 5684 5681 5678 5675 5673 5671 5669 5664 5664 5662 5662 5660 5659 5657 5655 5654 5652 5650 5648 5646 5643 5640
5711 5709 5708 5706 5703 5701 5697 5693 5690 5688 5687 5686 5684 5682 5681 5679 5677 5674 5670 5667 5662 5660 5658 5655 5653 5651 5651 5649 5647 5645 5644 5642 5640 5638 5636 5634 5631 5628
5704 5703 5701 5700 5697 5694 5690 5686 5681 5678 5677 5676 5675 5674 5672 5670 5668 5665 5662 5657 5653 5649 5648 5645 5642 5640 5638 5637 5635 5633 5631 5629 5628 5626 5624 5622 5619 5616
5698 5695 5693 5693 5691 5688 5684 5680 5676 5673 5670 5667 5665 5662 5661 5659 5657 5655 5653 5649 5644 5639 5638 5635 5631 5628 5624 5622 5622 5620 5618 5616 5615 5613 5611 5609 5607 5604
5691 5688 5686 5685 5683 5680 5676 5673 5669 5666 5662 5658 5655 5651 5649 5646 5645 5644 5642 5639 5636 5631 5628 5626 5621 5617 5612 5609 5607 5607 5605 5603 5601 5599 5597 5596 5594 5591
5684 5681 5679 5676 5673 5670 5667 5663 5660 5656 5652 5648 5644 5641 5638 5636 5634 5632 5630 5627 5625 5621 5618 5615 5611 5607 5603 5598 5595 5593 5591 5590 5588 5586 5584 5582 5579 5577
5676 5672 5669 5666 5663 5660 5656 5653 5650 5646 5643 5639 5635 5631 5629 5626 5623 5620 5616 5614 5610 5607 5606 5604 5601 5597 5592 5589 5585 5581 5579 5576 5575 5573 5571 5568 5566 5564
5667 5663 5658 5654 5650 5647 5644 5641 5639 5635 5632 5628 5624 5620 5617 5614 5610 5607 5603 5600 5595 5592 5590 5590 5588 5585 5582 5578 5572 5569 5566 5564 5562 5560 5557 5554 5553 5550
5659 5652 5647 5643 5639 5636 5633 5630 5627 5623 5620 5617 5613 5609 5605 5601 5598 5595 5591 5587 5583 5580 5577 5576 5574 5571 5567 5564 5561 5557 5554 5552 5550 5548 5545 5541 5539 5538
5648 5641 5636 5632 5628 5625 5622 5619 5615 5612 5609 5606 5602 5598 5595 5591 5587 5583 5579 5575 5571 5567 5565 5563 5560 5555 5550 5547 5548 5546 5542 5540 5537 5534 5532 5529 5526 5525
5636 5631 5626 5622 5619 5616 5612 5608 5605 5602 5599 5595 5592 5588 5584 5580 5576 5571 5567 5563 5560 5556 5553 5550 5547 5544 5539 5535 5534 5533 5531 5527 5524 5521 5518 5516 5513 5512
5624 5620 5617 5613 5609 5605 5602 5598 5595 5591 5588 5584 5581 5577 5573 5569 5564 5560 5556 5553 5548 5544 5541 5538 5536 5534 5531 5527 5522 5520 5519 5516 5513 5509 5506 5503 5500 5497
5614 5610 5606 5603 5599 5595 5591 5587 5583 5579 5576 5572 5568 5565 5561 5557 5552 5548 5544 5540 5536 5532 5529 5527 5525 5522 5518 5513 5509 5507 5505 5503 5501 5498 5494 5491 5487 5484
5603 5599 5595 5592 5588 5584 5580 5575 5572 5567 5563 5560 5556 5552 5549 5545 5540 5536 5532 5529 5525 5522 5518 5514 5511 5507 5503 5499 5495 5492 5491 5488 5486 5483 5481 5479 5477 5475